User: anonymous   Login
Location: Antioch Baptist Church
(32.6696°N, 85.7327°W)
Time: 00:05:24
(UTC+00:00)
Language:

Aureole 1 Rocket - Orbit

View from above orbital plane
View from above orbital plane
View from above satellite
View from above satellite

Ground track
Ground track

The orbit data is extracted from the following two-line orbital elements,

1  5730U 71119B   20273.45938417 +.00001751 +00000-0 +11356-3 0  9992
2  5730 073.8937 171.5032 0689610 176.5649 184.0611 14.04356237374056
Epoch (UTC): 29 September 2020 11:01:30
Eccentricity: 0.0689610
inclination: 73.8937°
perigee height: 378 km
apogee height: 1379 km
right ascension of ascending node: 171.5032°
argument of perigee: 176.5649°
revolutions per day: 14.04356237
mean anomaly at epoch: 184.0611°
orbit number at epoch: 37405

The dashed part of the orbit path shows where the satellite is in the earth's shadow,  

DLR